LiveATC.Net - Listen to live air traffic control over the Internet!


ICAO: KPVC  IATA: PVC   Airport: Provincetown Municipal Airport
City: Provincetown   State/Province: Massachusetts
Country: United States   Continent: North America
KPVC METAR Weather: KPVC 161356Z AUTO 29013G18KT 10SM CLR 00/M08 A3022 RMK AO2 SLP232 T00001083 FZRANO PNO $
KPVC Flight Activity (FlightAware)
KPVC Airport Info   (iFlightPlanner)
KPVC VFR Sectional Chart   (iFlightPlanner) 
KPVC IFR Low Chart   (iFlightPlanner) 

KPVC CTAF
Feed Status: UP   Listeners: 1
Listen in your browser - HTML5 player (in browser, HTML5)
Click here to listen with your own player (launches your MP3 player)
Archive Access: KPVC CTAF
FacilityFrequency
Provincetown CTAF122.800

NOTICE

Unauthorized use prohibited. See LiveATC.net Terms of Service


Airport/ARTCC Code
Frequency Search
(e.g., 124.400, 128.75)
Site-wide search
 


Browse Feeds
Top 50 Feeds
Coverage Map
Bad Weather Areas

LiveATC FAQ
Offer LiveATC feed
Contact LiveATC.net
Press Inquiries

LiveATC on iPhone
LiveATC on Android

Windows Phone
Windows 8/10

LiveATC Mobile
(Mobile browser)

ATC Audio Archives
Interesting Recordings

LiveATC Forums


Home Page
About LiveATC.net
Make a Donation
Terms of Use
Privacy Policy

Canadian Air Freqs

AIRMETs/SIGMETs

FAA Airport Status
Nat'l Airspace Status
Arrival Demand Charts


Server Software By:
Icecast.org
Liquidsoap